Location: Lawrence Hall of Science
(37.8785°N, 122.2415°W)
Time: 21:51:47
(UTC-07:00)

Cosmos 1461 - Visible Passes

Search period start: 30 October 2014 00:00
Search period end: 08 November 2014 23:00
Orbit: 533 x 666 km, 65.0° (Epoch: 29 October)

Date Brightness Start Highest point End Pass type
(mag) Time Alt. Az. Time Alt. Az. Time Alt. Az.
04 Nov 5.9 05:47:40 10° NE 05:48:01 10° NE 05:48:22 10° NE visible
05 Nov 5.5 05:56:32 10° N 05:59:22 17° NE 06:02:14 10° E visible
06 Nov 4.8 06:06:52 10° N 06:10:35 29° NE 06:14:24 10° ESE visible
08 Nov 5.7 04:51:05 10° NNE 04:52:48 12° NE 04:54:33 10° ENE visible
